Hourly Data Report for May 18, 2012

All times are specified in Local Standard Time (LST). Add 1 hour to adjust for Daylight Saving Time where and when it is observed.

DEER LAKE A
NEWFOUNDLAND

49°12'33.000" N
57°23'40.000" W
21.90 m
8401502
71809
YDF

Download Data

Hourly Data (May 2012)
Hourly Data Report for May 18, 2012
Temp Definition
°C
Dew Point Temp Definition
°C
Rel Hum Definition
%
Wind Dir Definition
10's deg

Wind Spd Definition
km/h
Visibility Definition
km
Stn Press Definition
kPa
Hmdx Definition


Wind Chill Definition


Weather Definition


TIME
00:30 Legend Double Dagger 10.2 9.0 92 27 23 10.0 100.72     Rain Showers
01:30 Legend Double Dagger 8.4 6.0 85 25 13 10.0 100.79     Rain Showers
02:30 Legend Double Dagger 8.1 6.1 87 23 14 10.0 100.81     Rain Showers
03:30 Legend Double Dagger 7.3 5.0 85 23 22 10.0 100.85     LegendNANA
04:30 Legend Double Dagger 5.9 3.9 87 25 6 10.0 100.86     LegendNANA
05:30 Legend Double Dagger 6.5 3.1 79 24 14 10.0 100.90     Mainly Clear
06:30 Legend Double Dagger 7.8 2.9 71 22 20 10.0 100.93     LegendNANA
07:30 Legend Double Dagger 9.1 3.3 67 23 24 10.0 100.93     LegendNANA
08:30 Legend Double Dagger 9.9 1.6 56 24 27 10.0 100.93     Mainly Clear
09:30 Legend Double Dagger 9.9 1.3 55 26 28 10.0 100.94     LegendNANA
10:30 Legend Double Dagger 10.0 -0.2 49 26 36 10.0 100.97     LegendNANA
11:30 Legend Double Dagger 10.9 0.9 50 23 33 10.0 100.94     Mainly Clear
12:30 Legend Double Dagger 10.7 0.7 50 26 32 10.0 100.92     LegendNANA
13:30 Legend Double Dagger 12.1 1.2 47 25 30 10.0 100.86     LegendNANA
14:30 Legend Double Dagger 11.0 0.5 48 26 32 10.0 100.87     Mainly Clear
15:30 Legend Double Dagger 10.7 -0.1 47 25 38 10.0 100.92     LegendNANA
16:30 Legend Double Dagger 10.0 -0.8 47 25 35 10.0 100.96     LegendNANA
17:30 Legend Double Dagger 10.1 -1.0 46 23 40 10.0 100.95     Mainly Clear
18:30 Legend Double Dagger 9.7 -1.6 45 25 30 10.0 100.91     LegendNANA
19:30 Legend Double Dagger 9.0 0.0 53 24 23 10.0 100.91     LegendNANA
20:30 Legend Double Dagger 7.6 0.4 60 23 24 10.0 100.99     Mainly Clear
21:30 Legend Double Dagger 6.9 0.6 64 23 26 10.0 101.01     LegendNANA
22:30 Legend Double Dagger 6.5 0.6 66 23 27 10.0 101.00     LegendNANA
23:30 Legend Double Dagger 6.9 0.1 62 23 27 10.0 100.97     Clear

Notes on Data Quality.

Legend

  • E = Estimated
  • M = Missing
  • NA = Not Available
  • ‡ = Partner data that is not subject to review by the National Climate Archives
Date modified: